User: anonymous   Login
Location: Franzen
(48.6167°N, 15.3833°E)
Time: 18:30:51
(UTC+00:00)
Language:

USA 215 - Orbit

View from above orbital plane
View from above orbital plane
View from above satellite
View from above satellite

Ground track
Ground track

The orbit data is extracted from the following two-line orbital elements,

1 37162U 10046A   21165.04787014 0.00000000  00000-0  00000-0 0    09
2 37162 123.0041  19.6625 0004437  94.8190 265.1810 13.41426939    05
Epoch (UTC): 14 June 2021 01:08:55
Eccentricity: 0.0004437
inclination: 123.0041°
perigee height: 1100 km
apogee height: 1107 km
right ascension of ascending node: 19.6625°
argument of perigee: 94.8190°
revolutions per day: 13.41426939
mean anomaly at epoch: 265.1810°
orbit number at epoch: 0

The dashed part of the orbit path shows where the satellite is in the earth's shadow,  

DLR